Washington, PA

5:41 AM EDT on September 23, 2019 (GMT -0400)
Washington County

Weather History for KAFJ - August, 2019

Change the Weather History Date:

Monday, August 19, 2019

  Actual Average Record
Temperature  
Mean Temperature 76 °F -  
Max Temperature 86 °F 78 °F 84 °F (2004)
Min Temperature 66 °F 58 °F 46 °F (1998)
Cooling Degree Days 11    
Growing Degree Days 26 (Base 50)    
Moisture  
Dew Point 67 °F    
Average Humidity 76    
Maximum Humidity 96    
Minimum Humidity 51    
Precipitation  
Precipitation 0.00 in - - ()
Sea Level Pressure  
Sea Level Pressure 30.05 in    
Wind  
Wind Speed 5 mph ()    
Max Wind Speed 21 mph    
Max Gust Speed 33 mph    
Visibility 10.0 miles    
Events Rain , Thunderstorm    
Averages and records for this station are not official NWS values.
T = Trace of Precipitation, MM = Missing Value Source: Averaged Metar Reports

Daily Weather History Graph

Daily Weather History Graph

Search for Another Location

Airport or City:

Astronomy

Aug. 19, 2019 Rise Set
Actual Time 6:36 AM EDT 8:12 PM EDT
Civil Twilight 6:07 AM EDT 8:41 PM EDT
Nautical Twilight 5:32 AM EDT 9:16 PM EDT
Astronomical Twilight 4:55 AM EDT 9:52 PM EDT
Moon 10:33 PM EDT (8/19) 10:16 AM EDT (8/19)
Length of Visible Light 14h 34m
Length of Day
13h 36m
Waning Gibbous, 85% of the Moon is Illuminated
Aug 19
Waning Gibbous
Aug 23
Last Quarter
Aug 30
New
Sep 5
First Quarter
Sep 14
Full

Hourly Weather History & Observations

Time (EDT) Temp. Heat Index Dew Point Humidity Pressure Visibility Wind Dir Wind Speed Gust Speed Precip Events Conditions
12:56 AM 71.1 °F - 70.0 °F 96% 29.98 in 10.0 mi SSW 4.6 mph - N/A   Clear
1:56 AM 73.0 °F - 70.0 °F 90% 29.97 in 10.0 mi Calm Calm - N/A   Clear
2:56 AM 73.9 °F - 64.9 °F 73% 30.02 in 10.0 mi WNW 20.7 mph 33.4 mph N/A   Mostly Cloudy
3:21 AM 71.6 °F - 64.4 °F 78% 30.06 in 10.0 mi NW 13.8 mph 20.7 mph 0.00 in Rain , Thunderstorm Light Rain
3:48 AM 69.8 °F - 64.4 °F 83% 30.06 in 10.0 mi Calm Calm - 0.00 in Thunderstorm Scattered Clouds
3:56 AM 69.1 °F - 64.9 °F 87% 30.01 in 10.0 mi Calm Calm - 0.00 in Thunderstorm Mostly Cloudy
4:22 AM 69.8 °F - 64.4 °F 83% 30.02 in 10.0 mi East 6.9 mph - 0.00 in   Partly Cloudy
4:56 AM 68.0 °F - 64.9 °F 90% 30.01 in 10.0 mi South 3.5 mph - 0.00 in   Partly Cloudy
5:56 AM 66.9 °F - 64.0 °F 90% 30.02 in 10.0 mi South 3.5 mph - N/A   Scattered Clouds
6:56 AM 66.9 °F - 64.0 °F 90% 30.03 in 10.0 mi SSW 4.6 mph - N/A   Clear
7:56 AM 69.1 °F - 64.9 °F 87% 30.06 in 10.0 mi SW 3.5 mph - N/A   Clear
8:56 AM 73.0 °F - 66.9 °F 81% 30.08 in 10.0 mi West 4.6 mph - N/A   Clear
9:56 AM 77.0 °F - 66.0 °F 69% 30.08 in 10.0 mi West 4.6 mph - N/A   Clear
10:56 AM 78.1 °F - 66.9 °F 68% 30.09 in 10.0 mi West 8.1 mph - N/A   Clear
11:56 AM 80.1 °F 82.1 °F 66.0 °F 62% 30.09 in 10.0 mi Variable 6.9 mph - N/A   Clear
12:56 PM 82.0 °F 84.5 °F 66.9 °F 60% 30.09 in 10.0 mi West 5.8 mph - N/A   Clear
1:56 PM 84.0 °F 86.5 °F 66.9 °F 56% 30.08 in 10.0 mi West 8.1 mph - N/A   Clear
2:56 PM 86.0 °F 88.2 °F 66.0 °F 51% 30.06 in 10.0 mi NW 4.6 mph - N/A   Clear
3:56 PM 86.0 °F 89.4 °F 68.0 °F 55% 30.06 in 10.0 mi NW 9.2 mph - N/A   Partly Cloudy
4:56 PM 86.0 °F 89.4 °F 68.0 °F 55% 30.05 in 10.0 mi West 8.1 mph - N/A   Partly Cloudy
5:56 PM 84.9 °F 88.8 °F 69.1 °F 59% 30.05 in 10.0 mi NW 5.8 mph - N/A   Mostly Cloudy
6:56 PM 84.0 °F 87.8 °F 69.1 °F 61% 30.04 in 10.0 mi NNW 5.8 mph - N/A   Clear
7:56 PM 80.1 °F 82.7 °F 68.0 °F 67% 30.05 in 10.0 mi NNW 4.6 mph - N/A   Clear
8:56 PM 73.9 °F - 68.0 °F 82% 30.07 in 10.0 mi Calm Calm - N/A   Clear
9:56 PM 72.0 °F - 68.0 °F 87% 30.09 in 10.0 mi Calm Calm - N/A   Clear
10:56 PM 70.0 °F - 68.0 °F 93% 30.11 in 10.0 mi Calm Calm - N/A   Clear
11:56 PM 69.1 °F - 68.0 °F 96% 30.11 in 10.0 mi Calm Calm - N/A   Scattered Clouds